FW9015 Weather Reports


Display with metric or nautical units.
time (UTC)temp
F
wind
direction
speed
MPH
gust
MPH
rain 1hr
in
rain 24hr
in
rain mn
in
humidity
%
barometer
mb
20260507071538 66 26 2.0 5.0 0.00 0.03 0.00 100 1009.1
20260507070053 67 331 3.0 5.0 0.00 0.03 0.00 100 1008.7
20260507064546 68 49 0.0 1.0 0.00 0.03 0.00 100 1008.9
20260507063039 69 0 0.0 1.0 0.00 0.03 0.00 100 1008.9
20260507061540 69 50 0.0 6.0 0.00 0.03 0.00 100 1008.8
20260507054538 69 227 2.0 5.0 0.00 0.03 0.00 100 1009.4
20260507053051 70 207 2.0 8.0 0.00 0.03 0.00 100 1009.5
20260507051542 70 243 2.0 5.0 0.00 0.03 0.00 100 1009.6
20260507050042 70 222 1.0 8.0 0.00 0.03 0.00 100 1009.7
20260507044539 70 246 3.0 9.0 0.00 0.03 0.00 100 1009.8
20260507043038 70 219 2.0 7.0 0.00 0.03 0.00 100 1009.9
20260507041539 69 226 3.0 7.0 0.00 0.03 0.00 100 1009.9
20260507040043 69 271 1.0 8.0 0.00 0.03 0.00 100 1009.7
20260507034552 69 145 1.0 5.0 0.00 0.03 0.03 100 1009.6
20260507033043 69 240 1.0 7.0 0.00 0.03 0.03 100 1009.6
20260507031538 69 219 2.0 6.0 0.00 0.03 0.03 100 1009.5
20260507030040 68 217 1.0 4.0 0.00 0.03 0.03 100 1009.5
20260507024554 68 222 0.0 4.0 0.00 0.03 0.03 100 1009.6
20260507023040 68 229 1.0 3.0 0.00 0.03 0.03 100 1009.9
20260507021546 68 0 1.0 3.0 0.00 0.03 0.03 100 1010.0
20260507020039 68 229 1.0 4.0 0.00 0.03 0.03 100 1010.0
20260507014545 68 159 1.0 3.0 0.00 0.03 0.03 100 1009.9
20260507013038 68 213 0.0 2.0 0.00 0.03 0.03 100 1010.1
20260507011544 68 221 0.0 2.0 0.00 0.03 0.03 100 1010.3
20260507010049 68 222 1.0 2.0 0.00 0.03 0.03 100 1010.2
20260507004538 69 231 0.0 2.0 0.00 0.03 0.03 100 1010.2
20260507003040 69 213 1.0 2.0 0.00 0.03 0.03 100 1010.0
20260507001546 70 190 1.0 1.0 0.00 0.03 0.03 100 1010.1
20260507000043 70 226 1.0 3.0 0.00 0.03 0.03 100 1009.9
20260506234542 71 229 1.0 3.0 0.00 0.03 0.03 100 1010.0
20260506233041 72 149 1.0 3.0 0.00 0.03 0.03 100 1010.0
20260506231539 72 173 1.0 4.0 0.00 0.03 0.03 100 1009.9
20260506230044 72 205 1.0 5.0 0.00 0.03 0.03 100 1010.0
20260506224544 73 213 2.0 9.0 0.00 0.03 0.03 100 1009.7
20260506223043 73 260 3.0 11.0 0.00 0.03 0.03 100 1009.9
20260506221547 73 211 4.0 13.0 0.00 0.03 0.03 100 1010.0
20260506220050 73 232 2.0 4.0 0.00 0.03 0.03 100 1010.1
20260506214539 73 221 2.0 5.0 0.00 0.03 0.03 100 1010.0
20260506213043 72 188 0.0 3.0 0.00 0.03 0.03 100 1009.8
20260506211551 72 222 0.0 2.0 0.00 0.03 0.03 100 1009.9
20260506210043 71 244 0.0 2.0 0.00 0.03 0.03 100 1009.8
20260506204541 72 248 0.0 1.0 0.00 0.03 0.03 100 1009.7
20260506203041 72 255 0.0 3.0 0.00 0.03 0.03 100 1009.5
20260506201540 71 256 1.0 5.0 0.00 0.03 0.03 100 1009.8
20260506200038 70 211 2.0 7.0 0.00 0.03 0.03 100 1009.8
20260506194539 70 190 2.0 11.0 0.00 0.03 0.03 100 1009.6
20260506193039 70 225 3.0 13.0 0.00 0.03 0.03 100 1010.0
20260506191539 70 219 2.0 7.0 0.00 0.03 0.03 100 1010.2
20260506190038 69 254 1.0 8.0 0.00 0.03 0.03 100 1010.7
20260506184546 69 215 2.0 8.0 0.00 0.03 0.03 100 1010.7
20260506183043 68 209 3.0 8.0 0.00 0.03 0.03 100 1011.1
20260506181539 68 217 2.0 6.0 0.00 0.03 0.03 100 1011.3
20260506180048 68 212 3.0 7.0 0.00 0.03 0.03 100 1011.3
20260506174555 68 218 3.0 9.0 0.00 0.03 0.03 100 1011.6
20260506173046 68 198 3.0 9.0 0.01 0.03 0.03 100 1011.4
20260506171540 67 218 5.0 9.0 0.01 0.03 0.03 100 1011.6
20260506170045 66 206 3.0 9.0 0.02 0.03 0.03 100 1011.9
20260506164539 65 182 2.0 7.0 0.03 0.03 0.03 100 1012.0
20260506163044 65 211 3.0 5.0 0.02 0.02 0.02 100 1012.5
20260506161547 65 215 2.0 6.0 0.02 0.02 0.02 100 1012.5
20260506160043 66 173 2.0 5.0 0.01 0.01 0.01 100 1013.1
20260506154541 67 227 2.0 13.0 0.00 0.00 0.00 100 1013.2
20260506153046 69 224 4.0 10.0 0.00 0.00 0.00 100 1013.3
20260506151546 69 223 3.0 14.0 0.00 0.00 0.00 100 1013.4
20260506150048 69 216 3.0 8.0 0.00 0.00 0.00 100 1013.1
20260506144559 69 210 3.0 8.0 0.00 0.00 0.00 100 1013.0
20260506143049 69 215 4.0 7.0 0.00 0.00 0.00 100 1012.9
20260506141540 68 234 3.0 11.0 0.00 0.00 0.00 100 1012.9
20260506134546 69 225 4.0 11.0 0.00 0.00 0.00 100 1013.0
20260506133043 68 186 3.0 13.0 0.00 0.00 0.00 100 1012.9
20260506131544 68 214 4.0 11.0 0.00 0.00 0.00 100 1013.2
20260506130059 68 210 2.0 8.0 0.00 0.00 0.00 100 1013.1
20260506124538 67 232 5.0 14.0 0.00 0.00 0.00 100 1013.1
20260506123048 67 222 3.0 9.0 0.00 0.00 0.00 100 1013.3
20260506121551 67 183 4.0 10.0 0.00 0.00 0.00 100 1013.4
20260506120039 67 192 2.0 7.0 0.00 0.00 0.00 100 1013.4
20260506114538 66 225 3.0 10.0 0.00 0.00 0.00 100 1013.3
20260506113042 65 221 2.0 10.0 0.00 0.00 0.00 100 1013.1
20260506111543 65 223 3.0 9.0 0.00 0.00 0.00 100 1013.0
20260506110044 64 215 2.0 7.0 0.00 0.00 0.00 100 1013.1
20260506104543 65 216 2.0 6.0 0.00 0.00 0.00 100 1013.2
20260506103041 64 213 3.0 8.0 0.00 0.00 0.00 100 1013.0
20260506101544 64 217 3.0 7.0 0.00 0.00 0.00 100 1012.9
20260506100055 64 227 3.0 9.0 0.00 0.00 0.00 100 1012.9
20260506094545 64 163 3.0 7.0 0.00 0.00 0.00 100 1012.9
20260506093039 64 210 3.0 10.0 0.00 0.00 0.00 100 1013.1
20260506091540 64 219 3.0 7.0 0.00 0.00 0.00 100 1013.2
20260506090044 64 224 3.0 12.0 0.00 0.00 0.00 100 1013.3
20260506084540 64 167 3.0 7.0 0.00 0.00 0.00 100 1013.2
20260506083048 64 215 4.0 9.0 0.00 0.00 0.00 100 1013.2
20260506081555 64 234 2.0 8.0 0.00 0.00 0.00 100 1013.4
20260506073046 65 202 3.0 6.0 0.00 0.00 0.00 100 1013.5